Location: *
(28.3744°N, 81.5492°W)
Time: 03:16:11
(UTC+00:00)

Cosmos 1110 Rocket - Pass Details

Date: 15 June 2025
Orbit: 749 x 776 km, 74.0° (Epoch: 11 July)

Event Time Altitude Azimuth Distance (km) Brightness Sun altitude
Rises 01:54:26 0° 350° (N) 3,225 8.0 -17.3°
Reaches altitude 10° 01:56:52 10° 354° (N) 2,292 7.1 -17.7°
Maximum altitude 02:01:57 56° 73° (ENE) 897 4.1 -18.6°
Enters shadow 02:03:47 36° 131° (SE) 1,173 4.4 -18.9°
